Meteo Giornale » Osservazioni meteo Italia » Venezia-Tessera

ore: 03:20 - Osservazioni Meteo Venezia-Tessera
Lat. 45° 30' N Lon. 12° 20' E Alt. 2 metri s.l.m.

sereno Europe/Rome

19 °C

Sereno

Temp. 24 Ore

19 °C

27 °C

Nord

1.8 Km/h

Dew point 15 °C

Umidità 77 %

Visibilità  10 Km

Il sole sorge alle ore 05:24

Il sole tramonta alle ore 20:51

Data e Ora Cielo e Fenomeni T °C DP °C Um. % Pres. hPa Vis. km Vento km/h
Oggi h: 03:20 sereno Sereno 19 15 77 1019 10 N 1.8
Oggi h: 02:20 sereno Sereno 20 16 77 1019 10 N 0
Oggi h: 01:50 sereno Sereno 20 16 77 1019 10 N 3.7
Oggi h: 01:20 sereno Sereno 20 16 77 1019 10 O 7.4
Oggi h: 00:50 sereno Sereno 20 16 77 1020 10 O/NO 7.4
Oggi h: 00:20 sereno Sereno 21 15 68 1020 10 N 5.5
Ieri h: 23:50 sereno Sereno 22 14 60 1020 10 O/SO 9.3
Ieri h: 23:20 sereno Sereno 23 16 64 1020 10 N 5.5
Ieri h: 22:50 sereno Sereno 23 14 56 1020 10 S/SE 9.3
Ieri h: 22:20 sereno Sereno 23 14 56 1020 10 S 11.1
Ieri h: 21:50 sereno Sereno 23 15 60 1019 10 S 9.3
Ieri h: 21:20 sereno Sereno 23 15 60 1019 10 S 13
Ieri h: 20:50 sereno Sereno 24 14 53 1019 10 S 13
Ieri h: 20:20 sereno Sereno 24 14 53 1019 10 S 14.8
Ieri h: 19:50 sereno Sereno 25 13 47 1019 10 S 16.7
Ieri h: 19:20 sereno Sereno 25 14 50 1019 10 S 18.5
Ieri h: 18:50 sereno Sereno 25 14 50 1019 10 S/SE 18.5
Ieri h: 18:20 sereno Sereno 26 15 50 1019 10 S/SE 18.5
Ieri h: 17:50 sereno Sereno 26 13 44 1019 10 S/SE 22.2
Ieri h: 17:20 sereno Sereno 26 13 44 1019 10 S/SE 22.2
Ieri h: 16:50 sereno Sereno 26 13 44 1019 10 S/SE 20.3
Ieri h: 16:20 sereno Sereno 26 11 39 1019 10 S/SE 22.2
Ieri h: 15:50 sereno Sereno 26 13 44 1020 10 S/SE 20.3
Ieri h: 15:20 sereno Sereno 26 12 41 1020 10 S/SE 22.2
Ieri h: 14:50 sereno Sereno 26 13 44 1020 10 S/SE 22.2
Ieri h: 14:20 sereno Sereno 26 14 47 1020 10 S/SE 22.2
Ieri h: 13:50 sereno Sereno 26 13 44 1020 10 S/SE 20.3
Ieri h: 13:20 sereno Sereno 26 12 41 1020 10 SE 20.3
Ieri h: 12:50 sereno Sereno 27 11 36 1021 10 S/SE 14.8
Ieri h: 12:20 sereno Sereno 27 10 34 1021 10 S 14.8
Ieri h: 11:50 sereno Sereno 26 12 41 1021 10 S/SE 11.1
Ieri h: 11:20 sereno Sereno 25 13 47 1021 10 S/SE 9.3
Ieri h: 10:50 sereno Sereno 24 14 53 1021 10 S 7.4
Ieri h: 10:20 sereno Sereno 24 15 57 1021 10 S 7.4
Ieri h: 09:50 sereno Sereno 24 15 57 1021 10 S 7.4
Ieri h: 09:20 sereno Sereno 24 16 60 1021 10 E/NE 7.4
Ieri h: 08:50 sereno Sereno 23 16 64 1021 10 N 3.7
Ieri h: 08:20 sereno Sereno 21 16 73 1021 10 N 5.5
Ieri h: 07:50 sereno Sereno 20 16 77 1021 10 N/NO 7.4
Ieri h: 07:20 sereno Sereno 19 16 82 1021 10 N/NO 9.3
Ieri h: 06:50 sereno Sereno 19 15 77 1021 10 NO 9.3
Ieri h: 06:20 sereno Sereno 19 15 77 1021 10 N 5.5
Ieri h: 05:50 sereno Sereno 19 15 77 1021 10 NO 7.4
Ieri h: 05:20 sereno Sereno 20 15 72 1021 10 N 1.8
Ieri h: 04:50 poco_nuvoloso Poco Nuvoloso 21 14 64 1021 10 N 5.5
Ieri h: 04:20 sereno Sereno 21 13 60 1021 10 N/NE 9.3
Ieri h: 03:50 sereno Sereno 20 13 64 1021 10 N/NO 13